Find Starlink 37883

NORAD ID: 100457 Int'l Des: 2026-193 Owner: SPXS Country: US Constellation: starlink operational

Aktuelle Ansicht

3D-Globus wird geladen...

About Starlink 37883

Starlink 37883 (NORAD 100457) is a starlink constellation satellite launched Aug 22, 2026 by SPXS of US. with a mass of 575.00 kg.

Nächste Überflüge

Passes for default location (London). Set your location on the main map for personalized predictions.

Höhenverlauf

Loading altitude history...

Zweizeiliger Elementsatz

1 A0457U 26193AA 26250.57695489 .00417426 00000-0 19374-2 0 9995
2 A0457 69.9989 110.3568 0005398 284.9235 75.1369 15.82151678 3244
Epoch: 7. Sept. 2026 • Age: 29 hours

Aktueller Status

Höhe 332.3 km
Apogäum / Perigäum N/A
Geschwindigkeit 7.71 km/s
Subsatellitenpunkt 49.96°N, 14.48°W
Startdatum 22. Aug. 2026
Alter 17 days
Typ internet

Technische Details

Klassifizierung Payload
Masse 575.00 kg
Trockenmasse 530.00 kg
Gesamtmasse 575.00 kg
Länge 0.30 m
Durchmesser 4.10 m
Spannweite 29.00 m
Form Box + pan
Hersteller SPXS
Bus-Typ Starlink V2MO
Phasenstatus In Orbit
Besitzer/Staat SPXS/US

Most Searched